Location: Washington
(38.8950°N, 77.0370°W)
Time: 16:34:12
(UTC-04:00)

Tiangong 1 - Visible Passes

Search period start: 27 August 2016 00:00
Search period end: 06 September 2016 00:00
Orbit: 363 x 383 km, 42.8° (Epoch: 27 August)

Date Brightness Start Highest point End Pass type
(mag) Time Alt. Az. Time Alt. Az. Time Alt. Az.
27 Aug 2.1 20:42:11 10° WNW 20:45:07 38° N 20:47:24 15° ENE visible
27 Aug 4.1 22:18:42 10° WNW 22:19:22 15° WNW 22:19:22 15° WNW visible
28 Aug 1.4 21:15:22 10° WNW 21:18:25 54° NNE 21:18:48 49° NE visible
29 Aug 1.9 20:11:59 10° WNW 20:14:58 41° N 20:17:55 10° E visible
29 Aug 2.9 21:48:28 10° WNW 21:50:11 29° W 21:50:11 29° W visible
30 Aug 1.0 20:45:02 10° WNW 20:48:09 73° NNE 20:49:36 28° E visible
31 Aug 1.8 21:18:09 10° W 21:20:59 41° SW 21:20:59 41° SW visible
01 Sep 1.0 20:14:35 10° WNW 20:17:42 79° SSW 20:20:25 13° ESE visible
01 Sep 4.1 21:52:07 10° WSW 21:52:23 11° WSW 21:52:23 11° WSW visible
02 Sep 2.6 20:47:49 10° W 20:50:30 27° SSW 20:51:52 19° S visible
04 Sep 3.4 20:17:32 10° W 20:19:42 17° SW 20:21:51 10° S visible
